Home   Weather   Tirana   Past weeks

Flag for Albania Past Weather in Tirana, Albania — Yesterday and Last 2 Weeks

Now
73 °F

Partly sunny.


Feels Like: 76 °F
Forecast: 54 / 68 °F
Wind: 10 mph from West

Location: Tirana Airport

Current Time: Apr 28, 2017 at 4:33:02 pm

Latest Report: Apr 28, 2017 at 3:50 pm


Visibility: N/A

Pressure: 29.95 "Hg

Humidity: 23%

Dew Point: 34 °F

Location of TiranaLocation

Past Weather in Tirana — Graph

°F

Tirana Temperature Yesterday

Maximum temperature yesterday: 81 °F (at 12:50 pm)
Minimum temperature yesterday: 54 °F (at 11:50 pm)
Average temperature yesterday: 65 °F

High & Low Weather Summary for the Past Weeks

 TemperatureHumidityPressure
High81 °F (Apr 27, 12:50 pm)94% (Apr 19, 11:50 pm)30.21 "Hg (Apr 19, 11:50 pm)
Low34 °F (Apr 21, 6:20 am)23% (Apr 21, 12:20 pm)29.80 "Hg (Apr 19, 9:20 am)
Average55 °F62%30.08 "Hg
* Reported Apr 19 9:20 am — Apr 28 2:50 pm, Tirana, Weather by CustomWeather, © 2017

Note: Actual official high and low records may vary slightly from our data, if they occured in-between our weather recording intervals... More about our weather records

Advertising

Tirana Weather History for the Previous 24 Hours

Scroll right to see more
 ConditionsComfort  
Time TempWeatherWind HumidityBarometerVisibility
2:50 pm
Fri, Apr 28
73 °FPartly sunny.5 mph31%29.95 "HgN/A
2:20 pm73 °FPartly sunny.9 mph36%29.95 "HgN/A
1:50 pm73 °FPartly sunny.13 mph33%29.98 "HgN/A
1:20 pm75 °FScattered clouds.10 mph36%29.98 "HgN/A
12:50 pm73 °FScattered clouds.10 mph36%29.98 "HgN/A
12:20 pm73 °FScattered clouds.9 mph36%29.98 "HgN/A
11:50 am73 °FScattered clouds.7 mph36%29.98 "HgN/A
11:20 am72 °FPartly sunny.6 mph38%30.01 "HgN/A
10:50 am72 °FPartly sunny.3 mph33%30.01 "HgN/A
9:50 am70 °FPassing clouds.3 mph40%29.98 "HgN/A
9:20 am68 °FPassing clouds.3 mph49%30.01 "HgN/A
8:50 am64 °FScattered clouds.6 mph52%30.01 "HgN/A
8:20 am61 °FScattered clouds.5 mph63%30.01 "HgN/A
7:50 am59 °FPartly sunny.No wind63%30.01 "HgN/A
7:20 am54 °FScattered clouds.3 mph72%30.01 "HgN/A
6:50 am52 °FScattered clouds.2 mph77%29.98 "HgN/A
6:20 am50 °FSunny.5 mph82%29.98 "Hg10 mi
5:50 am48 °FPassing clouds.3 mph82%29.98 "HgN/A
5:20 am50 °FClear.2 mph76%29.98 "Hg10 mi
4:50 am48 °FClear.5 mph82%29.98 "Hg10 mi
4:20 am50 °FClear.No wind71%30.01 "Hg10 mi
3:50 am52 °FClear.2 mph77%30.01 "Hg10 mi
3:20 am50 °FClear.5 mph76%30.01 "Hg10 mi
2:50 am52 °FClear.3 mph72%30.01 "Hg10 mi
2:20 am52 °FClear.3 mph77%30.01 "Hg10 mi
1:50 am52 °FClear.No wind72%30.01 "Hg10 mi
1:20 am54 °FClear.No wind72%30.04 "Hg10 mi
12:50 am54 °FClear.No wind72%30.04 "Hg10 mi
12:20 am55 °FClear.2 mph63%30.04 "Hg10 mi
11:50 pm
Thu, Apr 27
54 °FClear.5 mph67%30.04 "Hg10 mi
11:20 pm55 °FClear.6 mph63%30.04 "Hg10 mi
10:50 pm55 °FClear.No wind72%30.04 "Hg10 mi
10:20 pm57 °FPassing clouds.3 mph63%30.04 "HgN/A
9:50 pm57 °FClear.2 mph63%30.04 "Hg10 mi
9:20 pm59 °FPassing clouds.3 mph59%30.01 "HgN/A
8:50 pm61 °FClear.2 mph59%30.01 "Hg10 mi
8:20 pm64 °FClear.1 mph43%30.01 "Hg10 mi
7:50 pm64 °FClear.No wind46%30.01 "Hg10 mi
7:20 pm68 °FPassing clouds.3 mph33%30.01 "HgN/A
6:50 pm70 °FSunny.5 mph35%30.01 "Hg10 mi
6:20 pm72 °FSunny.2 mph38%30.01 "Hg10 mi
5:50 pm72 °FPassing clouds.6 mph33%30.01 "HgN/A
5:20 pm73 °FSunny.9 mph29%30.01 "Hg10 mi
4:50 pm73 °FPassing clouds.9 mph29%30.01 "HgN/A
4:20 pm73 °FPassing clouds.10 mph31%30.01 "HgN/A
Weather by CustomWeather, © 2017

See weather overviewHow to use our weather pages